Hourly Weather Roundup
Issued by NWS Central Illinois

Home | Current Version | Previous Version | Text Only | Print | Product List | Glossary On
Versions: 1 2 3 4 5 6 7 8 9 10 11 12 13 14 15 16 17 18 19 20 21 22 23 24 25 26 27 28 29 30 31 32 33 34 35 36 37 38 39 40 41 42 43 44 45 46 47 48 49 50
000
NZUS43 KILX 200910
HWRILX

Area Weather Roundup
National Weather Service Lincoln IL
400 AM CDT SUN AUG 20 2017

NOTE:  "FAIR" indicates few or no clouds below 12,000 feet, with
       no sigificant weather and/or obstructions to visibility.


CITY           SKY/WX    TMP DP  RH WIND       PRES   REMARKS
Bloomington    CLEAR     69  64  84 SE9       30.00F
Champaign      PTCLDY    64  62  93 E3        29.99F
Danville       CLEAR     62  61  97 CALM      29.98S
Decatur        CLEAR     65  62  90 SE3       29.98S
Effingham      CLEAR     65  65 100 CALM      30.01R
Flora          PTCLDY    69  68  96 CALM      29.99S
Galesburg      CLEAR     64  62  90 SE3       29.99R
Jacksonville   CLEAR     66  64  93 CALM      29.96R
Lacon          CLOUDY    64  61  91 CALM      29.97S
Lawrenceville  FOG       68  68 100 CALM      30.00R VSB 1
Litchfield     CLEAR     68  67  96 E3        29.97S
$$


CITY           SKY/WX    TMP DP  RH WIND       PRES   REMARKS
Lincoln        CLEAR     64  64  97 CALM      29.97S
Macomb         CLEAR     63  61  96 CALM      30.00R
Mattoon        CLEAR     68  68 100 SE5       29.98S
Mt Carmel AP   CLEAR     65  64  96 CALM      30.00R
Olney-Noble AP PTCLDY    67  65  93 CALM      29.99S
Paris AP       CLEAR     62  62 100 CALM      30.01S FOG
Peoria         CLEAR     70  64  81 CALM      29.98S
Pontiac        CLEAR     60  60  98 CALM      30.00S
Rantoul        CLEAR     67  64  92 CALM      30.00S
Robinson       FOG       63  63 100 CALM      30.01R VSB 1/4
Springfield    CLEAR     69  67  93 SE5       29.96F
Taylorville    CLEAR     68  67  97 SE5       29.97F
$$

...REGIONAL REPORTS...


CITY           SKY/WX    TMP DP  RH WIND       PRES   REMARKS
Chicago O`Hare CLEAR     64  57  78 CALM      30.00S
Kankakee       CLEAR     61  59  94 SE3       30.01F
Moline         CLEAR     63  59  87 E5        29.97R
Mount Sterling CLOUDY    65  65  98 CALM      29.98R
Mount Vernon     N/A     72  69  90 CALM      29.98S
Pittsfield     CLOUDY    66  65  97 CALM      29.98R
Quincy         CLOUDY    68  65  90 SE5       29.96R
Rockford       CLEAR     62  58  86 CALM      30.01R
$$


CITY           SKY/WX    TMP DP  RH WIND       PRES   REMARKS
Burlington     CLEAR     68  66  93 S3        29.95R
Cedar Rapids   CLOUDY    66  63  90 SE5       29.95R
Des Moines     CLOUDY    73  61  65 E3        29.91F
Kirksville     CLOUDY    66  61  84 S5        29.96S
Ottumwa        LGT RAIN  69  67  93 S8        29.94R
St Louis       CLOUDY    76  70  82 CALM      29.96S
$$


CITY           SKY/WX    TMP DP  RH WIND       PRES   REMARKS
Terre Haute    CLEAR     63  61  93 CALM      30.00S FOG
Evansville     PTCLDY    70  67  90 CALM      30.00S
Indianapolis   PTCLDY    71  62  73 E7        30.00F
Lafayette      CLEAR     63  61  93 CALM      30.00F
Madison        CLEAR     60  59  96 CALM      29.99R
Milwaukee      CLEAR     64  58  80 SW3       29.99F
$$






USA.gov is the U.S. government's official web portal to all federal, state and local government web resources and services.